"DATE","AVE_SWS","AVE_RWS","AVE_RWD","WD_SD","MAX_WS","MAX_WST","AVE_TEMP","MAX_TEMP","MAX_TEMT","MIN_TEMP","MIN_TEMT","MAX_RH","MAX_RHT","MIN_RH","MIN_RHT","MAX_GSW","MAX_GSWT","TOT_GSW","MAX_DSW","MAX_DSWT","TOT_DSW","MAX_NETR","MAX_NETT","MIN_NETR","TOT_NETR","MAX_GPAR","MAX_GPAT","TOT_GPAR","MAX_DPAR","MAX_DPAT","TOT_DPAR","AVE_BP","AVE_RH","TOT_PREC","SNO_DEPCM","POT_PAR","POT_SW","KT_PAR","KT_SW"
"1/1/2021",0.785,0.125,307,73.79,4.753,"1/1/2021 20:24",-1.223,2.232,"1/1/2021 13:45",-6.245,"1/1/2021 7:13",100,"1/1/2021 21:41",60.16,"1/1/2021 12:40",319.8,"1/1/2021 12:39",4959.295,247.5,"1/1/2021 12:48",3778.57765,177,"1/1/2021 12:39",-42.38,1736.259,619.1,"1/1/2021 12:39",9.395877,419.4,"1/1/2021 12:48",7.70056769,745.3,80.08,6.1,0,22.37128077,12650.24232,41.99972767,39.20316208
"1/2/2021",1.564,0.739,265.6,58.34,9.6,"1/2/2021 14:53",1.929,8.28,"1/2/2021 12:38",-1.804,"1/2/2021 22:24",100,"1/2/2021 0:00",58.52,"1/2/2021 14:50",591.4,"1/2/2021 11:49",6057.626,277.6,"1/2/2021 12:35",2940.75896,326.9,"1/2/2021 11:50",-42.46,1825.309,1184,"1/2/2021 11:13",11.86783,632.6,"1/2/2021 9:45",5.89562906,736,79.26,3.9,0,22.46623341,12703.935,52.82518784,47.68306828
"1/3/2021",0.802,0.422,336.1,55.39,5.39,"1/3/2021 12:21",-0.567,1.493,"1/3/2021 13:38",-2.452,"1/3/2021 7:30",100,"1/3/2021 16:16",82.7,"1/3/2021 0:09",123.3,"1/3/2021 11:10",1177.442,120.7,"1/3/2021 11:10",1219.39281,84.5,"1/3/2021 11:10",-39.79,84.21729,271.6,"1/3/2021 11:10",2.620467,216.7,"1/3/2021 11:10",2.28094817,739.1,91.35,7.3,12.7,22.57016211,12762.70334,11.61031537,9.225647331
"1/4/2021",0.431,0.298,287.4,44.76,4.214,"1/4/2021 14:34",0.015,3.366,"1/4/2021 15:28",-1.867,"1/4/2021 6:30",100,"1/4/2021 0:00",82.5,"1/4/2021 15:29",406.8,"1/4/2021 14:29",2281.452,250.9,"1/4/2021 13:36",2573.06163,66.53,"1/4/2021 13:38",-101.1,72.16965,775.3,"1/4/2021 14:19",4.876316,427.7,"1/4/2021 12:03",5.38215295,737.5,91.25,0.2,0,22.68300147,12826.51039,21.49766646,17.78700465
"1/5/2021",0.767,0.598,300.1,37.87,4.165,"1/5/2021 13:26",0.297,2.206,"1/5/2021 12:38",-1.54,"1/5/2021 0:39",100,"1/5/2021 1:43",79.85,"1/5/2021 15:54",184.7,"1/5/2021 10:54",3303.891,178.8,"1/5/2021 10:54",3445.51616,56.85,"1/5/2021 13:31",-29.88,592.1422,378.5,"1/5/2021 12:35",6.803471,312.1,"1/5/2021 10:54",6.12214632,736.6,89.925,0,0,22.80467961,12895.31548,29.83366185,25.62086213
"1/6/2021",2.629,2.316,286.9,27.95,11.42,"1/6/2021 8:35",-0.573,1.284,"1/6/2021 13:15",-1.806,"1/6/2021 8:06",94.2,"1/6/2021 1:18",64.14,"1/6/2021 13:16",634.1,"1/6/2021 12:41",5795.826,255.9,"1/6/2021 12:55",4742.92899,193.1,"1/6/2021 12:41",-41.6,816.7505,1221,"1/6/2021 12:55",11.37186,434.9,"1/6/2021 12:55",8.12251432,737.8,79.17,0,0,22.93511825,12969.07434,49.58273978,44.68958885
"1/7/2021",2.595,2.269,293.6,28.66,10.63,"1/7/2021 12:54",-2.135,0.973,"1/7/2021 13:25",-3.894,"1/7/2021 22:15",83.7,"1/7/2021 22:16",58.98,"1/7/2021 13:25",472.4,"1/7/2021 12:12",8872.483,100.1,"1/7/2021 9:33",1793.49254,140,"1/7/2021 12:30",-43.46,45.21412,891,"1/7/2021 12:29",16.51598,538.4,"1/7/2021 9:37",4.32366376,740,71.34,0,0,23.07622496,13048.86567,71.57141183,67.99428567
"1/8/2021",2.062,1.785,301.4,29.64,9.21,"1/8/2021 21:35",-4.33,-0.76,"1/8/2021 14:15",-6.77,"1/8/2021 23:46",88,"1/8/2021 7:25",63.33,"1/8/2021 15:21",628.7,"1/8/2021 11:58",9030.906,217.1,"1/8/2021 12:03",2745.6991,242.8,"1/8/2021 11:58",-44.79,252.3716,1154,"1/8/2021 11:58",16.65421,473.4,"1/8/2021 9:40",6.21631469,738.2,75.665,0,0,23.22629404,13133.72492,71.70412108,68.76119345
"1/9/2021",2.264,1.917,301.7,31.66,11.42,"1/9/2021 9:50",-4.006,-0.021,"1/9/2021 18:16",-8.01,"1/9/2021 4:23",85.3,"1/9/2021 0:51",50.03,"1/9/2021 16:32",600.8,"1/9/2021 13:03",5811.882,305.1,"1/9/2021 11:07",4669.0586,259.4,"1/9/2021 13:03",-44.8,844.844,1163,"1/9/2021 13:02",11.58196,620.9,"1/9/2021 9:16",8.75130916,736.3,67.665,0,0,23.38499219,13223.46364,49.52732037,43.95128355
"1/10/2021",1.468,1.171,297.3,36.31,7.84,"1/10/2021 6:24",-3.828,0.904,"1/10/2021 15:00",-9.32,"1/10/2021 23:21",98.3,"1/10/2021 22:16",57.54,"1/10/2021 15:06",499.2,"1/10/2021 12:33",8690.642,187,"1/10/2021 11:32",2812.78969,193.7,"1/10/2021 12:35",-47.64,582.3961,923,"1/10/2021 12:33",15.79475,481.6,"1/10/2021 9:31",6.47970992,741.8,77.92,0,0,23.55221511,13318.02284,67.06269421,65.25474618
"1/11/2021",0.684,0.356,64.71,55.31,3.381,"1/11/2021 14:53",-6.336,-1.667,"1/11/2021 14:44",-12.06,"1/11/2021 4:00",98.1,"1/11/2021 22:38",78.18,"1/11/2021 14:43",264.4,"1/11/2021 12:26",2625.88,202.3,"1/11/2021 12:28",2616.6104,135.5,"1/11/2021 12:28",-35.91,308.5263,640.7,"1/11/2021 12:26",6.453206,444.7,"1/11/2021 12:28",5.95139564,742.9,88.14,0,0,23.72785254,13417.34018,27.19675533,19.57079395
"1/12/2021",0.59,0.245,55.06,60.25,2.499,"1/12/2021 1:28",-3.842,1.887,"1/12/2021 15:25",-11.08,"1/12/2021 5:58",97.4,"1/12/2021 9:09",67.4,"1/12/2021 16:08",455.6,"1/12/2021 10:24",4196.673,238,"1/12/2021 12:17",3789.64224,221.7,"1/12/2021 10:01",-30.18,1523.27,875,"1/12/2021 10:00",9.034739,473,"1/12/2021 10:00",7.43449433,740,82.4,0,0,23.91178839,13521.35001,37.78361891,31.0373816
"1/13/2021",1.05,0.753,97.7,43,4.263,"1/13/2021 14:01",-0.407,2.731,"1/13/2021 13:54",-4.22,"1/13/2021 6:06",97.4,"1/13/2021 6:13",63.88,"1/13/2021 12:12",183.2,"1/13/2021 11:36",2841.276,176.6,"1/13/2021 11:36",2956.20426,108.3,"1/13/2021 11:36",-30.7,855.8909,375.4,"1/13/2021 11:36",5.803594,304.7,"1/13/2021 11:36",5.120275,737.6,80.64,0,0,24.10390084,13629.98344,24.07740572,20.84577734
"1/14/2021",0.639,0.448,62.29,43.16,2.45,"1/14/2021 0:00",0.817,4.1,"1/14/2021 14:44",-0.824,"1/14/2021 19:26",100,"1/14/2021 17:22",77.36,"1/14/2021 1:32",191,"1/14/2021 11:34",2577.547,182.3,"1/14/2021 11:34",2674.22998,114.6,"1/14/2021 11:35",-18.32,1293.788,390.6,"1/14/2021 11:34",5.427483,325.1,"1/14/2021 11:34",4.79546045,734.9,88.68,1.1,0,24.30440383,13743.36146,22.33127395,18.75485126
"1/15/2021",1.567,1.18,53.36,39.59,10.34,"1/15/2021 20:09",0.754,4.576,"1/15/2021 19:41",-3.569,"1/15/2021 7:22",100,"1/15/2021 0:00",77.72,"1/15/2021 22:03",161.3,"1/15/2021 13:21",1919.68,157.1,"1/15/2021 13:21",2034.6921,105.8,"1/15/2021 13:22",-14.18,1066.4,328.3,"1/15/2021 13:21",4.16975,272,"1/15/2021 13:21",3.73428877,737,88.86,3.3,0,24.51578512,13862.8908,17.00842938,13.84761683
"1/16/2021",1.589,0.282,202.4,73.37,10.14,"1/16/2021 7:03",2.331,5.085,"1/16/2021 13:48",-1.02,"1/16/2021 21:28",100,"1/16/2021 6:29",77.49,"1/16/2021 23:52",210.3,"1/16/2021 12:54",1997.457,207.2,"1/16/2021 12:25",2101.14831,142.8,"1/16/2021 12:26",-28.58,954.2914,429.5,"1/16/2021 12:54",4.135435,358.7,"1/16/2021 12:25",3.76610914,727.6,88.745,12.3,0,24.73507446,13986.8919,16.71891066,14.28092112
"1/17/2021",3.384,3.055,177.2,25.23,13.13,"1/17/2021 13:46",2.464,5.238,"1/17/2021 15:44",0.29,"1/17/2021 0:36",78.79,"1/17/2021 0:10",58.21,"1/17/2021 8:46",414,"1/17/2021 9:48",3060.661,279,"1/17/2021 11:41",2798.63604,206.6,"1/17/2021 11:42",-39.45,851.9358,785,"1/17/2021 9:47",6.114046,464.2,"1/17/2021 11:41",5.17016757,729.3,68.5,0,0,24.96212697,14115.28281,24.4932894,21.68331334
"1/18/2021",2.252,1.731,162.1,38.91,9.26,"1/18/2021 13:07",1.99,6.677,"1/18/2021 12:17",-3.694,"1/18/2021 23:17",87.6,"1/18/2021 23:18",49.64,"1/18/2021 13:32",742.3,"1/18/2021 12:20",6894.655,322.4,"1/18/2021 12:20",4887.45972,404.8,"1/18/2021 12:20",-42.81,2172.041,1412,"1/18/2021 12:19",13.14399,538.7,"1/18/2021 12:20",8.71658394,732.6,68.62,0,0,25.19679278,14247.97881,52.16532959,48.39040745
"1/19/2021",1.481,0.869,134.1,51.58,9.06,"1/19/2021 12:03",-1.202,3.923,"1/19/2021 15:40",-6.052,"1/19/2021 6:06",97.7,"1/19/2021 7:21",51.05,"1/19/2021 15:45",341.8,"1/19/2021 11:01",4609.033,292.8,"1/19/2021 11:26",4243.05608,181.6,"1/19/2021 11:26",-41.17,1127.036,694.4,"1/19/2021 11:01",9.013859,495.1,"1/19/2021 11:25",7.7886713,737.9,74.375,0,0,25.43891727,14384.89245,35.43334374,32.04078874
"1/20/2021",1.601,0.997,215.7,49.52,11.03,"1/20/2021 15:44",-1.931,2.608,"1/20/2021 11:58",-8.54,"1/20/2021 23:49",94,"1/20/2021 8:06",39.98,"1/20/2021 17:18",688.7,"1/20/2021 11:48",6534.93,283.2,"1/20/2021 11:52",3863.2761,391.5,"1/20/2021 11:48",-52.38,1446.26,1298,"1/20/2021 11:52",12.10258,469.9,"1/20/2021 11:52",7.05130156,736.7,66.99,0,0,25.68893557,14526.26978,47.11203377,44.98697944
"1/21/2021",1.326,0.868,72.21,47.29,6.419,"1/21/2021 13:43",-3.569,2.355,"1/21/2021 13:42",-10.56,"1/21/2021 6:39",92.5,"1/21/2021 7:10",48.69,"1/21/2021 13:43",609.9,"1/21/2021 13:10",3942.576,287.6,"1/21/2021 13:24",3616.59275,328.8,"1/21/2021 13:10",-46.18,849.441,1164,"1/21/2021 13:22",7.74774,469.6,"1/21/2021 13:34",6.09304441,733,70.595,0,0,25.94952093,14673.62246,29.85696738,26.8684574
"1/22/2021",1.955,1.223,190.2,49.45,8.28,"1/22/2021 21:42",1.313,6.6,"1/22/2021 11:43",-1.998,"1/22/2021 7:51",86.3,"1/22/2021 19:59",45.46,"1/22/2021 16:19",730.5,"1/22/2021 11:38",5945.183,314.5,"1/22/2021 11:37",4441.75327,415.3,"1/22/2021 11:38",-44.97,1893.774,1470,"1/22/2021 11:41",11.28927,498,"1/22/2021 11:36",7.77265702,731.9,65.88,0,0,26.21719155,14824.98161,43.06056192,40.10246459
"1/23/2021",2.732,2.514,209.9,22.86,11.91,"1/23/2021 12:40",-4.468,-0.324,"1/23/2021 12:22",-10.82,"1/23/2021 23:31",71.53,"1/23/2021 23:33",28.84,"1/23/2021 14:41",640.5,"1/23/2021 12:18",9480.313,221.1,"1/23/2021 11:04",3213.87263,335.6,"1/23/2021 12:18",-54.19,1602.282,1243,"1/23/2021 11:37",17.41983,421.4,"1/23/2021 15:06",7.36677699,738.1,50.185,0,0,26.49177342,14980.24886,65.75562052,63.28541728
"1/24/2021",1.644,1.366,243.3,33.2,8.43,"1/24/2021 12:57",-6.833,-1.616,"1/24/2021 14:10",-10.63,"1/24/2021 7:19",82.3,"1/24/2021 0:41",29.15,"1/24/2021 16:02",545.9,"1/24/2021 12:45",10543.3,177.1,"1/24/2021 14:00",2306.80515,263.5,"1/24/2021 12:45",-51.78,1862.142,1024,"1/24/2021 12:45",19.47009,453,"1/24/2021 14:52",6.01535139,740.4,55.725,0,0,26.7730887,15139.32364,72.72261418,69.64181657
"1/25/2021",0.971,0.682,254.7,42.81,6.321,"1/25/2021 11:19",-5.892,0.507,"1/25/2021 15:01",-13.18,"1/25/2021 7:39",92.1,"1/25/2021 9:23",43.32,"1/25/2021 14:33",545.7,"1/25/2021 12:05",10040.48,204.7,"1/25/2021 14:06",2884.3144,267,"1/25/2021 12:05",-44.89,2532.629,1037,"1/25/2021 12:05",18.88138,504.7,"1/25/2021 14:57",6.25384557,740.1,67.71,0,0,27.06105845,15302.1613,69.77325013,65.61478345
"1/26/2021",0.827,0.181,183.3,70.28,6.419,"1/26/2021 12:04",-3.513,0.451,"1/26/2021 11:10",-5.723,"1/26/2021 7:43",99.2,"1/26/2021 20:41",47.89,"1/26/2021 12:01",241.8,"1/26/2021 10:31",2676.668,221.8,"1/26/2021 10:30",2679.65164,137.5,"1/26/2021 10:31",-26.65,752.3829,497.3,"1/26/2021 10:31",5.185535,374.8,"1/26/2021 10:31",4.30558284,737.6,73.545,6.4,6.35,27.35985498,15471.12116,18.95307926,17.30106029
"1/27/2021",1.334,0.967,105.6,41.76,7.154,"1/27/2021 14:34",-1.893,0.682,"1/27/2021 14:06",-3.501,"1/27/2021 0:46",100,"1/27/2021 9:22",68.33,"1/27/2021 15:12",163.3,"1/27/2021 14:42",1746.196,225,"1/27/2021 14:41",2447.66585,43.23,"1/27/2021 14:08",-186.5,-969.584,613.9,"1/27/2021 14:42",5.045813,512,"1/27/2021 11:54",6.79459457,738.1,84.165,1.4,1.27,27.66493631,15643.63488,18.23901904,11.16234183
"1/28/2021",2.723,2.358,94,29.68,11.56,"1/28/2021 11:50",-5.144,-2.241,"1/28/2021 0:00",-10.63,"1/28/2021 23:59",75.7,"1/28/2021 1:02",41.01,"1/28/2021 15:19",491.3,"1/28/2021 13:15",8526.322,262.2,"1/28/2021 10:36",3075.99417,49.32,"1/28/2021 11:09",-57.21,-953.9337,1071,"1/28/2021 11:11",18.58006,423.8,"1/28/2021 10:36",5.66339257,739.6,58.355,0,0,27.97610903,15819.59308,66.41402484,53.89722705
"1/29/2021",2.167,1.834,52.5,31.65,11.81,"1/29/2021 4:58",-11.48,-6.502,"1/29/2021 15:37",-14.94,"1/29/2021 6:15",85.4,"1/29/2021 3:00",44.89,"1/29/2021 15:55",586.8,"1/29/2021 11:06",9483.697,311,"1/29/2021 10:46",4267.70207,51.43,"1/29/2021 10:46",-59.2,-1605.084,1100,"1/29/2021 11:02",17.66218,578.5,"1/29/2021 10:46",8.2977122,740,65.145,0.2,0,28.29317699,15998.88485,62.42558058,59.27723769
"1/30/2021",1.203,0.919,52,39.22,5.782,"1/30/2021 0:09",-10,-3.666,"1/30/2021 15:08",-14.36,"1/30/2021 1:47",83.8,"1/30/2021 23:33",40.35,"1/30/2021 14:39",564,"1/30/2021 11:59",12256.13,63.24,"1/30/2021 12:00",1805.59045,40.19,"1/30/2021 11:37",-58.29,-2014.51,1055,"1/30/2021 12:08",22.54199,456.4,"1/30/2021 8:59",5.36869363,743,62.075,0,0,28.61782222,16182.46132,78.76906155,75.73711908
"1/31/2021",0.984,0.744,26.8,39.79,4.508,"1/31/2021 11:20",-10.25,-6.734,"1/31/2021 15:44",-15.66,"1/31/2021 7:11",88.4,"1/31/2021 1:38",53.29,"1/31/2021 14:14",350.9,"1/31/2021 14:08",6257.908,271.8,"1/31/2021 11:13",6159.22485,57.22,"1/31/2021 14:06",-36.09,53.20491,689.1,"1/31/2021 14:08",12.50983,512.8,"1/31/2021 11:43",11.6725157,743.4,70.845,0,0,28.95112098,16370.93109,43.21017486,38.22573051
"2/1/2021",2.47,2.321,45.5,19.89,9.36,"2/1/2021 22:06",-6.709,-2.96,"2/1/2021 20:53",-9.32,"2/1/2021 7:44",98.5,"2/1/2021 20:33",62.62,"2/1/2021 0:14",110,"2/1/2021 10:33",1560.995,105.5,"2/1/2021 10:33",1646.26,11.38,"2/1/2021 10:33",-3.622,78.38477,255.4,"2/1/2021 10:33",3.785297,232.7,"2/1/2021 10:33",3.73660672,737,80.56,34.8,35.56,29.28980572,16562.44645,12.92359887,9.424905944
"2/2/2021",3.073,2.764,46.9,25.71,10.44,"2/2/2021 22:48",-3.513,-1.738,"2/2/2021 14:34",-4.809,"2/2/2021 4:14",NA,"2/2/2021 1:49",NA,"2/2/2021 1:49",210.5,"2/2/2021 10:26",3810.412,201.1,"2/2/2021 10:26",4037.19456,19.24,"2/2/2021 10:25",-7.416,80.03544,459.8,"2/2/2021 10:26",8.485768,388.7,"2/2/2021 10:26",7.9608928,728.4,NA,7.8,7.62,29.63366902,16756.89013,28.63556313,22.73937449
"2/3/2021",2.129,1.874,29,27.99,10.24,"2/3/2021 12:44",-1.772,1.165,"2/3/2021 14:40",-3.828,"2/3/2021 0:04",96.3,"2/3/2021 5:29",60.48,"2/3/2021 14:35",301.7,"2/3/2021 12:45",5053.651,284.6,"2/3/2021 12:45",5351.97152,24.39,"2/3/2021 12:45",-8.41,102.2029,626.2,"2/3/2021 12:45",10.60693,497.9,"2/3/2021 12:45",9.583364,728.7,78.39,0.5,0,29.98276344,16954.29184,35.37675912,29.80750271
"2/4/2021",1.267,0.293,45.6,69.96,7.497,"2/4/2021 9:32",-1.804,5.113,"2/4/2021 16:13",-8.53,"2/4/2021 23:52",100,"2/4/2021 21:33",45.59,"2/4/2021 16:22",823,"2/4/2021 11:35",10479.75,324.8,"2/4/2021 11:29",4197.71968,69.83,"2/4/2021 11:35",-62.17,-781.7829,1709,"2/4/2021 11:34",20.16424,530.3,"2/4/2021 11:29",7.317408,734.1,72.795,0,0,30.34172498,17157.27308,66.45713127,61.08051059
"2/5/2021",1.763,1.161,228.24,47.18,8.53,"2/5/2021 8:34",-0.178,5.535,"2/5/2021 15:17",-8.4,"2/5/2021 0:55",99.7,"2/5/2021 20:03",49.34,"2/5/2021 22:49",766.6,"2/5/2021 12:58",5199.785,329.8,"2/5/2021 12:51",4834.00848,68.96,"2/5/2021 12:58",-49.11,-194.9344,1466,"2/5/2021 12:53",10.48569,518.7,"2/5/2021 13:25",8.17048512,731.9,74.52,0.9,1.27,30.70531745,17362.87297,34.14942711,29.94772241
"2/6/2021",2.69,2.278,303.1,31.54,13.38,"2/6/2021 12:17",0.173,5.168,"2/6/2021 15:02",-5.983,"2/6/2021 23:59",81.6,"2/6/2021 23:38",27.33,"2/6/2021 15:56",777.7,"2/6/2021 11:21",13043.79,305.6,"2/6/2021 11:36",3638.34464,125.6,"2/6/2021 11:21",-58.07,-931.2902,1550,"2/6/2021 11:38",24.09632,547.3,"2/6/2021 11:36",7.1657376,737.2,54.465,0,0,31.07332579,17570.9699,77.54663972,74.23488899
"2/7/2021",1.074,0.683,27.8,48.3,7.546,"2/7/2021 22:22",-4.475,-0.556,"2/7/2021 14:20",-8.27,"2/7/2021 4:49",NA,"2/7/2021 11:23",NA,"2/7/2021 11:23",202,"2/7/2021 11:38",2611.581,179.5,"2/7/2021 11:37",2545.51808,16.42,"2/7/2021 9:18",-34.54,-353.6418,386.1,"2/7/2021 11:37",5.952274,226,"2/7/2021 11:37",4.42016848,737.7,NA,1.8,1.27,31.4455343,17781.44188,18.92883722,14.68711603
"2/8/2021",1.22,0.229,351.2,72.72,5.88,"2/8/2021 1:59",-7.92,-2.071,"2/8/2021 15:35",-14.03,"2/8/2021 6:53",83.1,"2/8/2021 19:38",37.97,"2/8/2021 15:32",622.6,"2/8/2021 12:00",13469.51,156.6,"2/8/2021 13:09",2731.75056,28.81,"2/8/2021 10:25",-43.07,-1523.138,1184,"2/8/2021 12:52",25.49069,309.7,"2/8/2021 13:09",6.07938464,744.3,60.535,0,0,31.82704712,17997.17515,80.09128181,74.84235658
"2/9/2021",0.924,0.148,128.3,73.93,4.312,"2/9/2021 23:22",-5.395,-2.564,"2/9/2021 16:21",-8.54,"2/9/2021 1:50",99.2,"2/9/2021 14:33",59.75,"2/9/2021 0:00",107.1,"2/9/2021 10:04",1555.118,78.38,"2/9/2021 9:08",1382.49104,4.168,"2/9/2021 8:03",-76.36,-775.1492,212.4,"2/9/2021 10:04",2.779831,117,"2/9/2021 10:04",1.9808936,742.6,79.475,9,11.43,32.21274096,18215.27266,8.62960095,8.537440142
"2/10/2021",0.947,0.326,36.2,64.45,4.851,"2/10/2021 1:57",-5.739,-0.474,"2/10/2021 14:59",-14.42,"2/10/2021 7:19",96,"2/10/2021 5:46",41.23,"2/10/2021 15:26",543,"2/10/2021 14:39",6646.218,115.4,"2/10/2021 14:12",2585.19184,103.6,"2/10/2021 10:44",-71.36,172.642,1359,"2/10/2021 13:23",14.10007,285.4,"2/10/2021 14:24",5.15806144,743.4,68.615,0,0,32.60205652,18435.41813,43.24902017,36.05135481
"2/11/2021",1.235,1.009,34.7,34.06,8.92,"2/11/2021 16:23",-5.458,-1.446,"2/11/2021 14:17",-9.45,"2/11/2021 23:49",96.3,"2/11/2021 4:50",45.39,"2/11/2021 16:24",784.7,"2/11/2021 13:02",9066.375,231.4,"2/11/2021 13:02",3907.41344,45.84,"2/11/2021 13:02",-69.89,-632.0963,1526,"2/11/2021 13:02",18.19818,583.1,"2/11/2021 12:47",8.64923584,743,70.845,0.7,1.27,32.99477504,18657.48787,55.15473277,48.59376066
"2/12/2021",1.11,0.868,52,37.66,6.566,"2/12/2021 9:38",-9.01,-4.637,"2/12/2021 15:22",-15.53,"2/12/2021 7:23",82.6,"2/12/2021 1:49",28.35,"2/12/2021 14:32",868,"2/12/2021 12:01",9558.141,373.4,"2/12/2021 12:21",7012.45664,79.4,"2/12/2021 12:01",-37.12,-83.80772,1698,"2/12/2021 12:00",19.08523,694.5,"2/12/2021 12:21",13.8886608,744.3,55.475,0,0,33.39652204,18884.66292,57.14735797,50.61324653
"2/13/2021",1.334,1.103,49.6,33.68,5.88,"2/13/2021 9:15",-7.582,-5.183,"2/13/2021 15:33",-11.54,"2/13/2021 7:17",63.37,"2/13/2021 17:02",37.98,"2/13/2021 12:55",610.1,"2/13/2021 12:19",7563.645,362.8,"2/13/2021 12:47",6939.89744,47.84,"2/13/2021 12:19",-24.45,336.3544,1241,"2/13/2021 12:19",15.53236,652.2,"2/13/2021 12:47",12.30628,743.8,50.675,0,0,33.80136769,19113.59016,45.95186841,39.57207901
"2/14/2021",0.931,0.66,51.9,43.28,5.782,"2/14/2021 19:28",-3.332,0.849,"2/14/2021 15:27",-6.247,"2/14/2021 4:55",76.19,"2/14/2021 20:56",50.89,"2/14/2021 0:13",371.9,"2/14/2021 11:45",6497.067,341.6,"2/14/2021 11:46",6764.82352,59.11,"2/14/2021 11:47",-16.69,564.6539,790.3,"2/14/2021 11:45",13.87927,621.3,"2/14/2021 11:45",12.3155088,742.5,63.54,0,0,34.209024,19344.10674,40.57195552,33.58680288
"2/15/2021",1.144,0.966,33,31.89,5.194,"2/15/2021 0:12",-3.499,-2.107,"2/15/2021 12:58",-4.286,"2/15/2021 6:49",99.6,"2/15/2021 20:06",71.77,"2/15/2021 5:06",266.4,"2/15/2021 11:22",3592.39,259.3,"2/15/2021 11:22",3820.08816,28.45,"2/15/2021 10:52",-8.84,264.3586,596.8,"2/15/2021 11:21",8.280914,473.2,"2/15/2021 11:21",7.23485504,741.7,85.685,0.6,0,34.62021152,19576.62011,23.91930504,18.35040972
"2/16/2021",2.197,1.089,332.5,57.44,11.52,"2/16/2021 16:26",1.914,7.785,"2/16/2021 15:02",-3.37,"2/16/2021 0:24",100,"2/16/2021 0:31",53.73,"2/16/2021 23:35",851,"2/16/2021 12:08",8913.318,407,"2/16/2021 12:11",5977.00992,127,"2/16/2021 13:03",-44.07,1092.655,1781,"2/16/2021 12:08",18.3039,725.3,"2/16/2021 13:11",11.2421008,732.3,76.865,14.3,0,35.03896184,19813.40999,52.23870525,44.98628961
"2/17/2021",2.037,1.546,26.9,39.62,10.98,"2/17/2021 11:05",-5.279,-1.959,"2/17/2021 15:52",-8.27,"2/17/2021 6:41",66.57,"2/17/2021 22:09",27.33,"2/17/2021 14:37",713.6,"2/17/2021 11:40",13471.59,271.3,"2/17/2021 13:30",4741.8896,104.9,"2/17/2021 11:40",-43.07,-437.5239,1383,"2/17/2021 11:40",25.77371,586.4,"2/17/2021 9:00",11.11702368,743.9,46.95,0,0,35.45992525,20051.45131,72.68405057,67.1851119
"2/18/2021",1.08,0.803,54.2,40.85,4.753,"2/18/2021 13:28",-5.472,-4.022,"2/18/2021 13:16",-7.424,"2/18/2021 4:08",94.6,"2/18/2021 17:10",44.19,"2/18/2021 0:02",247.1,"2/18/2021 13:13",3396.676,212.8,"2/18/2021 13:13",3332.39872,13.88,"2/18/2021 8:17",-8.62,-93.92097,481.9,"2/18/2021 13:13",7.395373,265.3,"2/18/2021 13:13",4.817288,745.6,69.395,4.5,5.08,35.88288546,20290.62175,20.60975004,16.74012774
"2/19/2021",1.087,0.977,16.6,25.7,4.067,"2/19/2021 0:43",-3.454,-0.798,"2/19/2021 14:53",-5.724,"2/19/2021 1:22",NA,"2/19/2021 17:48",NA,"2/19/2021 17:48",158.1,"2/19/2021 13:00",2471.725,121.6,"2/19/2021 13:00",2094.32496,12.07,"2/19/2021 14:02",-114.3,-951.0632,308.5,"2/19/2021 13:00",4.261944,304.9,"2/19/2021 14:02",4.9803152,740.5,NA,5.1,5.08,36.31017976,20532.24299,11.73760094,12.038261
"2/20/2021",1.441,1.246,13.7,29.61,7.693,"2/20/2021 20:48",-3.114,0.919,"2/20/2021 14:58",-9.25,"2/20/2021 23:15",97.3,"2/20/2021 4:30",45.09,"2/20/2021 16:35",692.1,"2/20/2021 10:09",8035.491,186.9,"2/20/2021 13:27",3946.13744,60.77,"2/20/2021 14:38",-37.55,-312.9391,1546,"2/20/2021 10:09",14.91753,668.9,"2/20/2021 13:27",12.0579872,739.6,71.195,0,0,36.74279546,20776.8733,40.59987764,38.67516967
"2/21/2021",1.5,0.353,76.4,70.27,8.62,"2/21/2021 9:14",-7.165,1.031,"2/21/2021 15:38",-16.51,"2/21/2021 6:14",93.7,"2/21/2021 7:12",32.5,"2/21/2021 16:57",694.4,"2/21/2021 12:00",16725.54,93.8,"2/21/2021 10:18",2648.64096,38.16,"2/21/2021 8:15",-56.27,-898.3292,1320,"2/21/2021 12:05",30.88813,198.4,"2/21/2021 7:48",5.45621104,746.2,63.1,0,0,37.17681456,21022.29719,83.08439108,79.56095306
"2/22/2021",1.263,1.122,217.78,26.31,8.53,"2/22/2021 9:57",-2.174,2.194,"2/22/2021 12:01",-11.15,"2/22/2021 0:14",100,"2/22/2021 15:05",55.2,"2/22/2021 11:00",296.8,"2/22/2021 9:41",3332.287,255.2,"2/22/2021 9:40",3415.3056,39.32,"2/22/2021 9:41",-32.9,31.65998,619.9,"2/22/2021 9:41",7.686896,445,"2/22/2021 9:40",6.45756272,737.8,77.6,9.6,10.16,37.61202694,21268.39584,20.43733514,15.66778719
"2/23/2021",1.642,1.337,298.7,34.02,8.87,"2/23/2021 20:51",1.223,4.566,"2/23/2021 23:49",-3.432,"2/23/2021 0:20",100,"2/23/2021 0:01",69.44,"2/23/2021 23:49",513.5,"2/23/2021 13:56",5020.689,443.7,"2/23/2021 13:55",6186.4096,72.55,"2/23/2021 13:56",-175.7,-467.6188,1089,"2/23/2021 13:56",11.16754,779,"2/23/2021 13:55",12.0087184,731.5,84.72,0.8,1.27,38.05287346,21517.68042,29.34742894,23.3328542
"2/24/2021",2.286,1.458,260.51,48.67,9.36,"2/24/2021 14:54",5.667,10.91,"2/24/2021 14:16",-1.277,"2/24/2021 7:09",96.4,"2/24/2021 7:29",40.94,"2/24/2021 14:09",731.8,"2/24/2021 13:16",14179.61,396.4,"2/24/2021 11:29",7119.336,151.1,"2/24/2021 13:16",-40.96,1323.766,1465,"2/24/2021 13:16",27.7848,737.8,"2/24/2021 11:28",13.5515856,735.6,68.67,0,0,38.49629733,21768.42241,72.17525302,65.13843646
"2/25/2021",2.592,2.231,351.3,30.13,12.1,"2/25/2021 4:44",3.352,8.04,"2/25/2021 0:31",-4.545,"2/25/2021 23:58",81.5,"2/25/2021 23:58",31.91,"2/25/2021 16:17",730.8,"2/25/2021 10:40",17230.22,135.2,"2/25/2021 10:39",2362.88528,138.8,"2/25/2021 12:14",-52.44,454.6741,1439,"2/25/2021 10:40",32.61383,249.3,"2/25/2021 10:39",5.07434704,738.7,56.705,0,0,38.94033428,22019.51108,83.75333854,78.24978465
"2/26/2021",1.211,0.746,205.3,49.9,6.419,"2/26/2021 15:34",-1.336,5.797,"2/26/2021 15:10",-9.38,"2/26/2021 6:37",93.2,"2/26/2021 5:48",37.44,"2/26/2021 13:57",732.9,"2/26/2021 12:19",16441.49,223.3,"2/26/2021 15:00",3964.7272,153.5,"2/26/2021 12:35",-42.31,955.0723,1382,"2/26/2021 12:10",30.56738,386.8,"2/26/2021 15:03",7.80649296,745.6,65.32,0,0,39.38537379,22271.16665,77.61099377,73.82410746
"2/27/2021",1.195,0.632,194.4,55.25,6.223,"2/27/2021 2:45",1.531,5.817,"2/27/2021 17:04",-1.8,"2/27/2021 22:58",100,"2/27/2021 11:33",63.01,"2/27/2021 0:00",412.6,"2/27/2021 15:59",3536.202,329.4,"2/27/2021 12:15",3467.78992,90.4,"2/27/2021 15:59",-31.44,484.8348,922,"2/27/2021 15:58",8.212189,594.4,"2/27/2021 12:15",6.46601312,741.3,81.505,5.1,1.27,39.8365624,22526.29936,20.61470294,15.69810444
"2/28/2021",1.174,0.528,186.2,59.87,6.419,"2/28/2021 18:05",2.311,6.242,"2/28/2021 13:40",-1.213,"2/28/2021 5:31",100,"2/28/2021 5:34",62.68,"2/28/2021 13:59",281.5,"2/28/2021 11:45",4419.769,257.2,"2/28/2021 11:46",4582.4744,72.31,"2/28/2021 11:45",-19.02,801.4424,613.4,"2/28/2021 11:47",10.0074,505.4,"2/28/2021 11:48",8.902488,741.6,81.34,1.7,0,40.28779739,22781.45828,24.83977941,19.40072907